User: anonymous   Login
Location: Stonelick Lake State Park
(39.2170°N, 84.0850°W)
Time: 09:45:45
(UTC-04:00)
Language:

Lacrosse 5 - Orbit

View from above orbital plane
View from above orbital plane
View from above satellite
View from above satellite

Ground track
Ground track

The orbit data is extracted from the following two-line orbital elements,

1 28646U 05016A   16142.90126420 0.00000000  00000-0  00000-0 0    09
2 28646  57.0130 146.2611 0005500 116.2766 243.7233 14.52127832    03
Epoch (UTC): 21 May 2016 21:37:49
Eccentricity: 0.0005500
inclination: 57.0130°
perigee height: 715 km
apogee height: 722 km
right ascension of ascending node: 146.2611°
argument of perigee: 116.2766°
revolutions per day: 14.52127832
mean anomaly at epoch: 243.7233°
orbit number at epoch: 0

The dashed part of the orbit path shows where the satellite is in the earth's shadow,  

DLR